{"data":{"norad_id":53656,"intl_designator":"2022-105J","name":"STARLINK-4466","alt_names":[],"object_type":"PAYLOAD","status":"ACTIVE","operator":null,"country":"US","launch_date":"2022-08-31","launch_site_code":"AFWTR","launch_vehicle":null,"mission":null,"orbit_class":"UNKNOWN","rcs_meters":null,"size_class":null,"mass_kg":null,"dimensions":null,"purposes":["comms"],"wikipedia_slug":null,"has_3d_model":false,"image_url":null,"decayed_at":null,"tle_current":{"epoch":"2026-09-20T13:54:17.518752Z","epoch_age_seconds":75496,"freshness":"FRESH","line1":"1 53656U 22105J   26263.57936943 -.00000015  00000+0  28481-5 0  9994","line2":"2 53656  97.2839 137.3855 0001897  77.2409 282.9031 15.05654160222555","mean_motion":15.0565416,"eccentricity":0.0001897,"inclination_deg":97.2839,"raan_deg":137.3855,"arg_perigee_deg":77.2409,"mean_anomaly_deg":282.9031,"bstar":2.8481e-6,"rev_number":22255,"period_min":95.639492670747,"perigee_km":548.18422124674,"apogee_km":550.8125661151,"semimajor_km":6927.6353936809,"source":"CELESTRAK","updated_at":"2026-09-21T09:00:32.950881Z"}}}